Change the Weather History Date:

Thursday, May 15, 2014

  Actual Average Record
Temperature  
Mean Temperature 41 °F 54 °F  
Max Temperature 53 °F 68 °F 97 °F (1987)
Min Temperature 28 °F 41 °F 27 °F (1946)
Degree Days  
Heating Degree Days 24 11  
Month to date heating degree days 289 200  
Since 1 July heating degree days 10463 9278  
Cooling Degree Days 0 0  
Month to date cooling degree days 0 0  
Year to date cooling degree days 0 1  
Moisture  
Dew Point 28 °F    
Average Humidity 64    
Maximum Humidity 92    
Minimum Humidity 35    
Precipitation  
Precipitation 0.00 in 0.08 in 1.06 in (1985)
Month to date precipitation 1.31 1.16  
Year to date precipitation 5.93 4.20  
Snow  
Snow 0.00 in 0.00 in - ()
Month to date snowfall 0.0 0.1  
Since 1 July snowfall 60.3 47.4  
Snow Depth 0.00 in    
Sea Level Pressure  
Sea Level Pressure 30.27 in    
Wind  
Wind Speed 5 mph (North)    
Max Wind Speed 14 mph    
Max Gust Speed 23 mph    
Visibility 10 miles    
Events      
T = Trace of Precipitation, MM = Missing Value Source: NWS Daily Summary

Daily Weather History Graph

Daily Weather History Graph

Search for Another Location

Airport or City:

Trip Planner

Search our weather history database for the weather conditions in past years. The results will help you decide how hot, cold, wet, or windy it might be!

Date:

Astronomy

May. 15, 2014 Rise Set
Actual Time 5:50 AM CDT 9:00 PM CDT
Civil Twilight 5:13 AM CDT 9:37 PM CDT
Nautical Twilight 4:24 AM CDT 10:26 PM CDT
Astronomical Twilight 3:24 AM CDT 11:27 PM CDT
Moon 10:09 PM CDT (5/15) 6:39 AM CDT (5/15)
Length of Visible Light 16h 24m
Length of Day
15h 10m
Full, 99% of the Moon is Illuminated
May 15
Full
May 21
Last Quarter
May 28
New
Jun 5
First Quarter
Jun 12
Full

Hourly Weather History & Observations

Time (CDT) Temp. Windchill Dew Point Humidity Pressure Visibility Wind Dir Wind Speed Gust Speed Precip Events Conditions
12:53 AM 30.9 °F 25.2 °F 28.9 °F 92% 30.35 in 10.0 mi NW 5.8 mph - N/A   Clear
1:53 AM 30.0 °F 25.2 °F 28.0 °F 92% 30.34 in 10.0 mi NNW 4.6 mph - N/A   Clear
2:53 AM 30.0 °F 26.5 °F 28.0 °F 92% 30.33 in 10.0 mi North 3.5 mph - N/A   Clear
3:53 AM 30.0 °F 25.2 °F 28.0 °F 92% 30.33 in 10.0 mi North 4.6 mph - N/A   Mostly Cloudy
4:53 AM 28.9 °F - 27.0 °F 92% 30.33 in 10.0 mi Calm Calm - N/A   Clear
5:53 AM 30.9 °F 25.2 °F 28.9 °F 92% 30.33 in 10.0 mi WNW 5.8 mph - N/A   Mostly Cloudy
6:53 AM 30.9 °F - 28.9 °F 92% 30.34 in 10.0 mi Calm Calm - N/A   Mostly Cloudy
7:53 AM 34.0 °F 28.8 °F 30.9 °F 89% 30.34 in 10.0 mi NNW 5.8 mph - N/A   Mostly Cloudy
8:53 AM 39.9 °F 35.1 °F 32.0 °F 73% 30.34 in 10.0 mi North 6.9 mph - N/A   Partly Cloudy
9:53 AM 44.1 °F 39.0 °F 28.0 °F 53% 30.33 in 10.0 mi North 9.2 mph - N/A   Scattered Clouds
10:53 AM 46.0 °F 42.5 °F 27.0 °F 47% 30.32 in 10.0 mi NE 6.9 mph - N/A   Mostly Cloudy
11:53 AM 45.0 °F 41.2 °F 27.0 °F 49% 30.31 in 10.0 mi NNW 6.9 mph - N/A   Mostly Cloudy
12:53 PM 48.0 °F - 26.1 °F 42% 30.30 in 10.0 mi Variable 5.8 mph - N/A   Mostly Cloudy
2:53 PM 48.9 °F - 26.1 °F 41% 30.26 in 10.0 mi NE 9.2 mph - N/A   Mostly Cloudy
3:53 PM 50.0 °F - 25.0 °F 38% 30.24 in 10.0 mi NE 8.1 mph - N/A   Mostly Cloudy
4:53 PM 53.1 °F - 26.1 °F 35% 30.22 in 10.0 mi NE 8.1 mph - N/A   Mostly Cloudy
5:53 PM 51.1 °F - 25.0 °F 36% 30.20 in 10.0 mi NNE 6.9 mph - N/A   Scattered Clouds
6:53 PM 52.0 °F - 25.0 °F 35% 30.18 in 10.0 mi ENE 4.6 mph - N/A   Scattered Clouds
7:53 PM 51.1 °F - 25.0 °F 36% 30.17 in 10.0 mi Calm Calm - N/A   Scattered Clouds
8:53 PM 46.0 °F 44.8 °F 28.9 °F 51% 30.16 in 10.0 mi South 3.5 mph - N/A   Partly Cloudy
9:53 PM 43.0 °F 41.3 °F 32.0 °F 65% 30.16 in 10.0 mi South 3.5 mph - N/A   Clear
10:53 PM 37.9 °F 32.7 °F 30.0 °F 73% 30.17 in 10.0 mi South 6.9 mph - N/A   Clear
11:53 PM 37.0 °F 34.5 °F 30.9 °F 79% 30.16 in 10.0 mi South 3.5 mph - N/A   Clear